Location: Mae Hong Son
(19.2670°N, 97.9330°E)
Time: 11:12:56
(UTC+07:00)

ISS - Visible Passes

Search period start: 17 November 2018 00:00
Search period end: 27 November 2018 00:00
Orbit: 402 x 408 km, 51.6° (Epoch: 17 November)

Date Brightness Start Highest point End Pass type
(mag) Time Alt. Az. Time Alt. Az. Time Alt. Az.
17 Nov -1.0 19:31:03 10° S 19:31:21 12° S 19:31:21 12° S visible
18 Nov -2.6 05:21:50 24° N 05:23:17 38° NE 05:26:22 10° ESE visible
18 Nov -1.6 18:40:36 10° SSE 18:42:00 12° SE 18:42:07 12° ESE visible
19 Nov -0.7 04:32:32 14° ENE 04:32:32 14° ENE 04:33:22 10° E visible
19 Nov -2.1 06:05:15 11° W 06:07:30 19° SW 06:09:55 10° S visible
19 Nov -3.0 19:22:57 10° SW 19:25:33 50° WSW 19:25:33 50° WSW visible
20 Nov -3.3 05:15:59 45° SSW 05:15:59 45° SSW 05:18:42 10° SSE visible
20 Nov -3.4 18:31:02 10° SSW 18:34:08 43° SE 18:36:13 18° ENE visible
21 Nov -1.5 19:16:07 10° W 19:18:27 18° NW 19:19:31 16° NNW visible
22 Nov -2.8 18:23:11 10° WSW 18:26:18 43° NW 18:29:24 10° NNE visible
24 Nov -1.1 18:16:48 10° W 18:18:34 14° NW 18:20:20 10° NNW visible
